This is the latest recevied weather packets stored in our database for station/object W3EJE-13. If no packets are shown the sender has not sent any weather packets the latest 1 day(s).
| Time | Temp. | Humidity | Pressure | Rain* | Wind** | Luminosity | Snow |
|---|---|---|---|---|---|---|---|
| 1778068799 | 12.78° C | 99% | 1009.4 hPa | 0 mm | - | 42 W/m² | - |
| 1778068195 | 12.78° C | 99% | 1009.3 hPa | 0 mm | - | 47 W/m² | - |
| 1778067892 | 12.78° C | 99% | 1009.3 hPa | 0 mm | - | 45 W/m² | - |
| 1778067591 | 12.78° C | 99% | 1009.2 hPa | 0 mm | - | 60 W/m² | - |
| 1778066379 | 12.22° C | 99% | 1009.6 hPa | 0 mm | - | 16 W/m² | - |
| 1778065774 | 12.22° C | 99% | 1009.3 hPa | 1.27 mm | - | 10 W/m² | - |
| 1778065472 | 12.22° C | 99% | 1009.2 hPa | 0 mm | - | 6 W/m² | - |
| 1778064562 | 12.22° C | 99% | 1009.4 hPa | 3.05 mm | - | 2 W/m² | - |
| 1778064260 | 12.22° C | 99% | 1009.6 hPa | 1.78 mm | - | 2 W/m² | - |
| 1778063958 | 12.22° C | 99% | 1009.3 hPa | 1.27 mm | - | 0 W/m² | - |
| 1778063655 | 12.22° C | 99% | 1009.5 hPa | 1.78 mm | - | 0 W/m² | - |
| 1778063352 | 12.22° C | 99% | 1009.4 hPa | 1.78 mm | - | 0 W/m² | - |
| 1778063050 | 12.22° C | 99% | 1009.6 hPa | 0 mm | - | 0 W/m² | - |
| 1778062747 | 12.22° C | 99% | 1009.7 hPa | 0 mm | - | 0 W/m² | - |
| 1778062443 | 12.22° C | 99% | 1009.7 hPa | 0 mm | - | 0 W/m² | - |
| 1778061839 | 12.22° C | 99% | 1009.8 hPa | 1.27 mm | - | 0 W/m² | - |
| 1778060327 | 12.78° C | 97% | 1009.7 hPa | 1.78 mm | - | 0 W/m² | - |
| 1778059722 | 12.78° C | 97% | 1009.5 hPa | 0 mm | - | 0 W/m² | - |
| 1778059420 | 12.78° C | 96% | 1009.5 hPa | 0 mm | - | 0 W/m² | - |
| 1778059116 | 12.78° C | 95% | 1009.5 hPa | 0 mm | - | 0 W/m² | - |
| 1778058814 | 12.78° C | 95% | 1009.6 hPa | 0 mm | - | 0 W/m² | - |
| 1778057905 | 12.78° C | 94% | 1009.6 hPa | 0 mm | - | 0 W/m² | - |
| 1778057601 | 12.78° C | 94% | 1009.6 hPa | 0 mm | - | 0 W/m² | - |
| 1778057298 | 12.78° C | 95% | 1009.4 hPa | 0 mm | - | 0 W/m² | - |
| 1778056995 | 12.78° C | 95% | 1009.6 hPa | 0 mm | - | 0 W/m² | - |
* Rain latest hour (hover to see other rain measurements)
** Current wind speed in m/s (hover to see current wind gust speed)